Location: Marcé
(47.5801°N, 0.3280°W)
Time: 18:33:18
(UTC+01:00)

S-56A Canister/Altair - Pass Details

Date: 03 December 2021
Orbit: 633 x 2499 km, 38.9° (Epoch: 18 January)

Event Time Altitude Azimuth Distance (km) Brightness Sun altitude
Exits shadow 05:01:05 14° 143° (SE) 1,904 9.8 -34.5°
Drops below altitude 10° 05:01:47 10° 138° (SE) 2,120 10.2 -34.4°
Sets 05:04:10 0° 126° (SE) 2,953 11.2 -34.0°
